Date,TemperatureHighF,TemperatureAvgF,TemperatureLowF,DewpointHighF,DewpointAvgF,DewpointLowF,HumidityHigh,HumidityAvg,HumidityLow,PressureMaxIn,PressureMinIn,WindSpeedMaxMPH,WindSpeedAvgMPH,GustSpeedMaxMPH,PrecipitationSumIn
2013-1-1,27.2,25.6,24.4,25.0,23.4,22.0,96,91,86,30.78,30.66,2,0,4,0.00
2013-1-2,27.2,25.9,24.6,25.0,23.8,23.0,94,91,89,30.76,30.63,4,0,4,0.00
2013-1-3,27.8,25.4,23.8,24.0,22.3,21.0,92,88,81,30.62,30.50,3,0,5,0.00
2013-1-4,31.1,25.5,22.8,26.0,22.6,21.0,94,88,77,30.58,30.50,2,0,4,0.00
2013-1-5,28.1,26.5,25.1,27.0,25.0,23.0,97,94,91,30.54,30.34,0,0,1,0.00
2013-1-6,34.2,29.2,23.2,32.0,28.2,22.0,99,96,90,30.34,30.16,1,0,76,0.00
2013-1-7,48.6,40.5,32.7,46.0,38.6,33.0,100,93,79,30.18,30.00,5,1,26,0.00
2013-1-8,44.3,40.9,38.3,44.0,40.4,38.0,100,98,84,30.23,29.96,2,0,64,0.00
2013-1-9,42.7,38.0,32.0,43.0,37.5,32.0,100,97,87,29.98,29.74,4,0,9,0.00
2013-1-10,38.0,33.3,30.6,33.0,30.6,27.0,99,90,73,30.10,29.97,4,1,9,0.00
2013-1-11,35.5,30.4,24.8,29.0,26.0,23.0,93,83,64,30.36,30.09,2,0,5,0.00
2013-1-12,32.7,25.8,21.2,26.0,23.2,20.0,96,90,68,30.47,30.35,1,0,4,0.00
2013-1-13,29.2,23.2,20.6,26.0,21.7,20.0,96,94,85,30.57,30.47,1,0,2,0.00
2013-1-14,39.5,29.9,19.9,32.0,26.7,19.0,97,88,70,30.56,30.44,5,1,12,0.00
2013-1-15,39.5,33.6,31.0,35.0,32.5,30.0,99,95,84,30.70,30.56,2,0,85,0.00
2013-1-16,32.3,30.1,26.4,32.0,29.9,26.0,99,99,98,30.68,30.62,2,0,5,0.00
2013-1-17,26.9,26.4,26.0,26.0,26.0,25.0,98,97,97,30.68,30.52,2,0,2,0.00
2013-1-18,34.6,28.8,24.3,34.0,28.2,24.0,99,97,93,30.52,30.38,1,0,2,0.00
2013-1-19,28.3,26.5,25.4,28.0,26.1,25.0,98,98,97,30.58,30.43,1,0,3,0.00
2013-1-20,26.4,25.2,24.3,26.0,24.5,24.0,98,97,97,30.65,30.56,2,0,4,0.00
2013-1-21,25.3,24.6,24.0,25.0,24.0,23.0,97,97,97,30.55,30.43,1,0,3,0.00
2013-1-22,24.5,23.7,23.0,24.0,23.0,22.0,97,96,96,30.45,30.28,1,0,4,0.00
2013-1-23,26.9,24.7,23.0,26.0,23.8,22.0,98,96,93,30.29,30.11,2,0,3,0.00
2013-1-24,35.9,31.6,26.4,36.0,31.5,26.0,99,99,98,30.34,30.25,2,0,26,0.00
2013-1-25,37.7,34.4,32.2,38.0,34.3,32.0,100,99,99,30.25,30.02,1,0,63,0.00
2013-1-26,38.8,34.8,31.9,39.0,34.8,32.0,100,100,98,30.10,30.01,2,0,43,0.00
2013-1-27,39.2,34.9,31.8,37.0,34.3,32.0,100,97,89,30.15,30.06,3,0,83,0.00
2013-1-28,41.4,36.6,32.9,38.0,35.6,33.0,99,96,81,30.13,30.05,6,1,180,0.00
2013-1-29,44.2,41.9,38.3,41.0,38.9,37.0,95,89,80,30.39,30.07,7,2,12,0.00
2013-1-30,47.8,43.2,39.9,44.0,41.6,39.0,99,94,85,30.42,30.38,3,1,74,0.00
2013-1-31,49.7,44.6,41.0,43.0,41.2,40.0,99,88,72,30.41,30.33,3,1,8,0.03
2013-2-1,50.5,41.9,36.4,42.0,38.6,35.0,100,89,66,30.48,30.35,1,0,164,0.00
2013-2-2,46.9,39.0,33.5,41.0,36.6,33.0,98,91,78,30.51,30.34,2,0,5,0.00
2013-2-3,45.8,39.9,31.6,41.0,37.1,31.0,99,90,80,30.34,30.23,4,1,214,0.00
2013-2-4,48.7,42.6,37.5,42.0,38.6,36.0,93,86,75,30.25,29.99,3,0,156,0.00
2013-2-5,47.7,41.3,36.4,43.0,39.3,35.0,98,92,78,30.07,29.93,4,0,167,0.00
2013-2-6,45.6,40.3,36.6,42.0,38.8,36.0,99,94,82,30.15,29.94,2,0,172,0.00
2013-2-7,43.7,36.7,30.1,38.0,33.9,29.0,99,90,69,30.16,29.93,2,0,6,0.02
2013-2-8,42.9,33.6,27.9,35.0,30.7,27.0,98,89,71,30.28,30.16,2,0,162,0.00
2013-2-9,44.7,38.3,31.3,36.0,33.3,30.0,94,83,71,30.31,30.20,8,1,11,0.00
2013-2-10,47.0,37.4,31.2,38.0,34.3,31.0,99,89,70,30.38,30.29,4,0,6,0.00
2013-2-11,47.3,40.2,34.7,39.0,35.4,32.0,94,83,68,30.37,30.28,7,1,11,0.00
2013-2-12,49.9,44.3,39.8,44.0,41.5,39.0,96,90,72,30.44,30.37,4,1,123,0.00
2013-2-13,50.4,45.5,39.1,44.0,40.2,36.0,90,81,65,30.50,30.37,5,1,211,0.00
2013-2-14,51.4,43.3,37.7,43.0,39.0,35.0,96,85,70,30.56,30.49,3,1,97,0.00
2013-2-15,51.3,41.3,34.1,43.0,38.5,34.0,99,90,72,30.57,30.33,3,0,170,0.00
2013-2-16,48.5,40.0,33.7,43.0,37.4,33.0,99,90,78,30.33,30.21,8,1,11,0.00
2013-2-17,42.9,37.9,31.5,35.0,29.8,27.0,87,73,58,30.30,30.14,9,2,14,0.00
2013-2-18,41.7,35.4,30.7,33.0,30.7,29.0,93,83,70,30.14,29.84,2,0,137,0.00
2013-2-19,46.5,36.2,28.6,33.0,30.1,28.0,96,80,50,30.01,29.79,5,0,129,0.00
2013-2-20,43.9,36.4,29.5,37.0,33.4,29.0,98,89,70,30.11,30.02,5,0,59,0.00
2013-2-21,42.6,37.5,33.1,38.0,35.2,32.0,98,92,72,30.17,30.11,5,0,55,0.00
2013-2-22,42.9,39.2,34.5,41.0,37.0,32.0,98,92,74,30.16,29.83,6,1,13,0.00
2013-2-23,42.4,38.0,32.5,34.0,32.0,30.0,95,79,64,30.41,30.01,8,2,14,0.00
2013-2-24,45.7,38.4,34.1,35.0,33.0,30.0,91,81,63,30.43,30.11,4,0,43,0.00
2013-2-25,44.5,37.4,35.1,38.0,34.8,30.0,98,90,72,30.34,30.03,8,2,10,0.00
2013-2-26,44.6,38.4,34.1,37.0,33.9,29.0,95,84,69,30.43,30.30,3,0,9,0.00
2013-2-27,49.5,40.4,32.3,42.0,37.3,32.0,98,89,65,30.38,30.30,2,0,126,0.00
2013-2-28,49.8,45.1,41.2,48.0,44.7,40.0,99,98,94,30.45,30.29,2,0,113,0.00
2013-3-1,56.1,49.1,43.7,52.0,48.0,43.0,100,96,81,30.48,30.35,2,0,188,0.00
2013-3-2,51.3,45.0,41.2,48.0,43.5,36.0,100,94,80,30.34,30.12,5,1,9,0.00
2013-3-3,47.3,39.6,31.7,36.0,30.0,28.0,91,70,50,30.30,30.19,5,1,10,0.00
2013-3-4,49.1,36.9,28.5,30.0,26.4,22.0,95,69,38,30.32,30.07,5,0,8,0.00
2013-3-5,41.0,36.5,32.8,35.0,29.7,23.0,96,77,64,30.06,29.81,2,0,109,0.00
2013-3-6,37.6,35.6,33.1,37.0,35.1,32.0,99,98,96,30.00,29.66,1,0,3,0.00
2013-3-7,51.6,39.4,33.0,40.0,35.3,33.0,99,87,58,30.14,30.00,1,0,122,0.00
2013-3-8,54.1,40.2,30.6,38.0,32.6,30.0,98,77,43,30.24,30.10,2,0,224,0.00
2013-3-9,58.0,43.1,30.2,39.0,30.1,23.0,98,66,27,30.50,30.25,4,1,39,0.00
2013-3-10,51.1,43.4,36.0,42.0,37.3,31.0,93,79,61,30.50,30.39,5,1,167,0.00
2013-3-11,52.0,46.4,43.2,45.0,43.4,42.0,95,90,73,30.44,30.27,4,0,180,0.00
2013-3-12,64.7,49.6,44.1,51.0,46.7,43.0,98,90,55,30.27,30.17,5,1,239,0.10
2013-3-13,62.3,51.4,43.9,49.0,46.0,42.0,95,82,60,30.25,30.14,8,1,65,0.00
2013-3-14,60.1,50.0,45.2,49.0,45.1,41.0,96,84,56,30.20,30.06,4,0,200,0.00
2013-3-15,57.3,50.3,44.5,49.0,46.1,43.0,98,86,68,30.25,30.16,5,1,138,0.00
2013-3-16,49.4,43.7,34.0,45.0,41.4,33.0,97,91,72,30.15,29.93,6,1,224,0.00
2013-3-17,68.0,37.4,34.8,56.0,31.2,-99.9,93,81,55,30.25,30.06,6,1,52,0.56
2013-3-18,47.6,40.1,34.1,40.0,34.2,32.0,92,80,62,30.27,30.21,8,1,12,0.04
2013-3-19,44.7,37.5,32.0,37.0,33.4,31.0,97,85,63,30.26,29.86,4,0,204,0.10
2013-3-20,50.1,39.5,34.4,43.0,36.4,31.0,99,89,56,30.07,29.63,13,2,28,0.18
2013-3-21,43.3,36.6,33.2,35.0,32.2,30.0,95,84,68,30.28,30.08,5,1,10,0.03
2013-3-22,44.7,36.5,30.6,31.0,29.3,27.0,92,76,52,30.41,30.26,9,1,10,0.00
2013-3-23,47.0,35.9,29.8,33.0,29.4,25.0,95,79,43,30.44,30.33,3,0,55,0.00
2013-3-24,47.2,37.8,29.3,32.0,28.1,25.0,94,71,43,30.38,30.23,4,0,219,0.00
2013-3-25,54.4,43.5,33.0,36.0,29.8,25.0,81,60,42,30.23,30.01,3,0,242,0.00
2013-3-26,54.0,45.5,38.9,42.0,36.8,31.0,93,72,49,30.06,29.99,2,0,115,0.00
2013-3-27,62.4,47.9,40.0,48.0,43.3,39.0,97,86,50,30.04,29.95,3,0,94,0.04
2013-3-28,62.1,49.8,43.3,48.0,45.4,43.0,99,86,56,30.15,30.04,3,0,209,0.01
2013-3-29,65.9,52.9,45.9,49.0,46.1,44.0,96,79,47,30.24,30.15,4,0,98,0.00
2013-3-30,70.5,54.2,42.1,49.0,44.6,40.0,97,73,40,30.27,30.09,4,0,209,0.00
2013-3-31,71.7,56.6,42.5,48.0,42.1,39.0,89,62,34,30.10,29.92,5,0,6,0.00
2013-4-1,62.9,54.9,49.6,51.0,48.2,46.0,90,79,61,30.11,29.97,5,1,58,0.00
2013-4-2,62.6,53.9,48.7,49.0,46.7,45.0,90,78,58,30.18,30.11,6,2,229,0.00
2013-4-3,65.8,54.1,43.4,52.0,46.7,42.0,98,78,47,30.16,29.96,3,0,170,0.00
2013-4-4,58.1,52.4,49.1,54.0,49.4,44.0,95,89,74,29.96,29.75,4,0,71,0.06
2013-4-5,59.4,50.8,45.9,51.0,46.4,44.0,96,86,65,29.95,29.87,4,1,157,0.02
2013-4-6,49.5,44.9,40.3,46.0,42.9,39.0,97,93,79,30.01,29.86,4,1,249,0.16
2013-4-7,48.7,42.3,38.2,43.0,39.8,36.0,98,91,76,29.90,29.61,8,2,22,0.17
2013-4-8,54.6,44.5,37.9,41.0,37.8,34.0,88,78,58,30.30,29.92,4,1,13,0.00
2013-4-9,58.8,45.9,35.0,44.0,39.2,34.0,98,79,53,30.39,30.26,3,0,88,0.00
2013-4-10,58.4,48.6,43.1,50.0,42.3,34.0,96,80,61,30.27,30.05,9,2,92,0.02
2013-4-11,55.6,45.9,40.1,41.0,37.0,34.0,86,72,52,30.29,30.19,10,2,12,0.00
2013-4-12,51.9,42.8,33.9,41.0,37.6,33.0,97,83,61,30.19,29.78,6,1,42,0.00
2013-4-13,49.4,41.1,34.6,41.0,34.1,30.0,93,77,50,30.05,29.78,9,2,14,0.00
2013-4-14,53.1,41.8,34.7,36.0,34.0,31.0,94,76,45,30.07,29.92,8,1,9,0.00
2013-4-15,50.0,40.2,34.9,40.0,35.7,33.0,95,85,57,30.20,29.95,4,0,144,0.01
2013-4-16,52.8,41.8,33.9,38.0,34.7,27.0,98,79,45,30.44,30.20,3,0,124,0.00
2013-4-17,59.1,44.1,31.3,37.0,33.9,30.0,97,71,35,30.52,30.43,4,1,17,0.00
2013-4-18,57.3,48.4,43.6,45.0,40.0,36.0,92,73,57,30.46,30.30,5,1,142,0.00
2013-4-19,57.1,49.8,45.9,50.0,46.1,43.0,96,87,73,30.30,30.10,7,1,86,0.02
2013-4-20,55.6,49.5,45.5,45.0,41.9,40.0,92,76,58,30.30,30.23,10,2,15,0.00
2013-4-21,53.7,46.9,42.3,43.0,41.2,39.0,89,81,65,30.32,30.18,10,2,79,0.00
2013-4-22,61.4,48.0,36.0,41.0,32.2,24.0,98,61,26,30.53,30.32,7,1,22,0.00
2013-4-23,66.8,48.2,33.3,35.0,29.1,24.0,81,51,27,30.46,30.20,3,0,11,0.00
2013-4-24,71.5,53.9,37.7,39.0,31.1,23.0,69,45,23,30.37,30.01,3,0,32,0.00
2013-4-25,75.9,59.9,45.5,45.0,40.2,37.0,77,52,30,30.12,30.00,6,1,20,0.00
2013-4-26,78.6,63.2,47.8,47.0,40.7,32.0,86,49,22,30.21,30.12,7,1,192,0.00
2013-4-27,71.6,59.0,48.7,43.0,38.4,29.0,71,50,21,30.21,30.14,8,1,219,0.00
2013-4-28,61.9,54.3,48.0,48.0,43.1,39.0,94,68,44,30.22,30.00,9,2,11,0.01
2013-4-29,55.0,49.3,41.3,46.0,35.6,28.0,90,61,36,30.13,29.96,11,3,18,0.00
2013-4-30,54.1,45.3,39.5,33.0,29.8,27.0,72,56,38,30.43,30.13,7,2,13,0.00
2013-5-1,66.5,49.2,33.5,36.0,30.8,24.0,92,55,26,30.61,30.44,4,0,112,0.00
2013-5-2,76.7,57.4,40.2,41.0,31.7,24.0,66,40,22,30.60,30.25,3,0,5,0.00
2013-5-3,78.9,62.2,46.8,44.0,40.1,37.0,80,48,25,30.33,30.15,4,1,196,0.00
2013-5-4,79.8,65.6,51.5,43.0,36.7,30.0,71,38,18,30.19,29.97,6,1,80,0.00
2013-5-5,83.0,67.0,54.4,43.0,37.4,34.0,53,35,20,29.97,29.77,6,1,170,0.00
2013-5-6,88.8,68.6,53.2,52.0,44.2,38.0,68,45,17,29.86,29.71,4,0,230,0.00
2013-5-7,78.4,66.2,55.2,51.0,49.2,47.0,75,56,37,29.92,29.79,7,1,12,0.00
2013-5-8,75.5,63.0,54.1,55.0,51.3,49.0,82,67,45,30.07,29.93,6,1,236,0.00
2013-5-9,82.5,65.7,53.6,55.0,52.2,49.0,88,65,33,30.13,30.03,3,1,242,0.00
2013-5-10,87.4,69.9,54.2,55.0,50.7,42.0,89,55,27,30.16,30.04,4,0,182,0.00
2013-5-11,86.4,71.8,60.2,57.0,52.7,49.0,76,53,32,30.14,29.96,3,0,86,0.00
2013-5-12,70.1,64.0,56.7,59.0,55.4,52.0,86,74,61,30.07,30.01,7,1,68,0.00
2013-5-13,66.2,56.7,49.8,55.0,50.2,41.0,93,79,50,30.20,30.02,6,1,12,0.02
2013-5-14,66.8,53.9,41.9,43.0,36.9,28.0,90,57,24,30.23,30.11,7,1,119,0.00
2013-5-15,58.0,52.0,47.4,47.0,43.3,35.0,88,73,56,30.13,30.04,5,0,144,0.00
2013-5-16,67.3,55.1,46.5,51.0,47.3,45.0,96,77,51,30.06,29.91,3,0,161,0.00
2013-5-17,64.4,53.2,47.2,48.0,45.4,41.0,96,77,45,30.09,29.97,5,1,10,0.14
2013-5-18,60.1,51.5,46.7,48.0,45.7,44.0,92,81,62,30.28,30.09,6,1,14,0.01
2013-5-19,65.3,56.4,47.7,47.0,45.6,43.0,89,69,50,30.35,30.27,6,1,11,0.00
2013-5-20,77.0,59.0,43.7,49.0,45.6,42.0,95,66,33,30.33,29.88,3,0,180,0.00
2013-5-21,59.5,48.6,39.3,45.0,41.9,38.0,94,79,55,29.92,29.77,5,1,35,0.06
2013-5-22,44.5,42.0,39.4,42.0,39.8,36.0,97,92,83,30.01,29.92,3,0,64,0.00
2013-5-23,52.8,45.5,40.0,46.0,42.8,39.0,97,90,73,30.09,30.01,3,0,90,0.00
2013-5-24,60.2,49.6,43.9,47.0,44.3,43.0,97,84,56,30.12,30.04,7,1,15,0.00
2013-5-25,64.4,53.4,43.0,49.0,44.8,42.0,97,75,49,30.11,29.98,3,0,9,0.00
2013-5-26,64.6,55.0,49.3,54.0,49.1,46.0,98,82,56,30.04,29.96,4,1,98,0.14
2013-5-27,56.4,50.7,46.4,55.0,49.5,45.0,98,95,90,30.02,29.81,2,0,40,0.17
2013-5-28,62.6,53.1,46.5,53.0,48.1,46.0,98,84,60,29.93,29.79,3,1,99,0.01
2013-5-29,54.1,50.6,46.4,53.0,48.7,45.0,98,93,83,30.04,29.70,4,0,180,0.29
2013-5-30,62.8,51.8,43.8,46.0,44.3,43.0,96,77,51,30.27,30.04,9,2,10,0.00
2013-5-31,70.6,56.1,43.7,48.0,44.9,42.0,96,70,38,30.36,30.24,5,0,173,0.00
2013-6-1,74.6,59.9,46.4,52.0,48.3,45.0,94,69,43,30.25,30.01,6,1,87,0.00
2013-6-2,71.1,60.9,51.2,52.0,48.7,45.0,93,67,43,30.04,29.98,7,2,26,0.00
2013-6-3,76.3,61.6,47.7,53.0,49.0,46.0,95,67,40,30.08,29.98,5,1,21,0.00
2013-6-4,84.4,66.6,49.6,53.0,47.4,41.0,93,56,22,30.12,30.00,4,1,133,0.00
2013-6-5,85.4,70.0,54.6,55.0,50.1,45.0,76,52,26,30.05,29.92,4,1,148,0.00
2013-6-6,85.5,70.6,57.6,59.0,54.5,47.0,91,60,30,29.99,29.89,5,1,89,0.00
2013-6-7,77.0,66.5,58.2,53.0,46.3,35.0,68,50,26,30.06,29.96,8,2,13,0.00
2013-6-8,81.5,66.1,52.5,50.0,45.9,38.0,84,52,24,30.08,29.99,5,1,10,0.00
2013-6-9,74.0,62.3,51.4,51.0,46.9,42.0,88,60,33,30.02,29.91,7,1,13,0.00
2013-6-10,71.1,59.3,48.8,47.0,44.0,38.0,85,60,31,29.95,29.82,7,2,13,0.00
2013-6-11,62.2,54.0,48.6,46.0,43.3,40.0,80,68,53,30.13,29.89,7,2,12,0.00
2013-6-12,66.3,55.1,45.3,46.0,43.5,40.0,92,68,41,30.16,30.12,6,2,12,0.00
2013-6-13,64.4,54.8,47.6,49.0,46.0,44.0,93,74,51,30.23,30.14,6,1,13,0.01
2013-6-14,72.0,59.1,48.6,49.0,46.3,44.0,86,65,40,30.25,30.02,5,1,42,0.00
2013-6-15,84.9,65.8,48.4,54.0,48.0,41.0,90,58,22,30.01,29.88,4,0,107,0.00
2013-6-16,77.6,65.3,56.7,57.0,51.8,47.0,84,64,40,30.06,29.96,4,1,21,0.00
2013-6-17,78.9,65.7,56.9,54.0,51.0,47.0,84,62,36,30.06,29.89,4,1,9,0.00
2013-6-18,71.7,60.2,53.2,50.0,46.0,41.0,81,62,34,29.99,29.88,4,1,9,0.00
2013-6-19,65.5,56.7,51.2,48.0,45.6,44.0,84,68,46,30.06,29.91,9,2,11,0.00
2013-6-20,63.8,55.7,50.4,50.0,47.3,45.0,85,74,57,30.13,30.03,5,1,8,0.00
2013-6-21,70.3,58.7,48.9,49.0,48.0,47.0,95,70,45,30.16,30.09,6,1,140,0.04
2013-6-22,80.7,64.6,49.9,53.0,48.7,45.0,91,61,29,30.12,29.87,3,0,214,0.00
2013-6-23,71.6,63.7,59.2,60.0,56.0,51.0,97,77,51,29.86,29.66,1,0,129,0.07
2013-6-24,66.0,58.0,53.6,59.0,53.5,51.0,97,86,62,29.74,29.64,3,1,88,0.03
2013-6-25,64.4,56.6,53.1,59.0,54.9,51.0,98,94,82,29.92,29.73,1,0,225,0.26
2013-6-26,68.3,59.1,53.0,60.0,55.3,53.0,98,88,64,30.10,29.92,2,0,46,0.02
2013-6-27,82.7,66.6,56.5,62.0,58.2,55.0,97,77,46,30.18,30.08,3,0,15,0.01
2013-6-28,93.8,75.3,60.3,64.0,60.5,58.0,93,64,34,30.18,29.98,4,0,5,0.00
2013-6-29,89.9,75.9,65.2,63.0,60.1,54.0,84,61,34,30.02,29.92,4,1,30,0.00
2013-6-30,100.0,79.9,62.6,63.0,58.8,55.0,80,53,22,29.98,29.81,4,1,7,0.00
2013-7-1,96.4,80.0,67.3,67.0,64.1,62.0,84,61,34,29.93,29.84,7,1,9,0.00
2013-7-2,94.7,79.4,66.8,68.0,61.8,52.0,87,58,31,29.98,29.89,5,1,8,0.00
2013-7-3,88.4,75.0,62.8,58.0,49.9,37.0,79,45,21,30.03,29.92,8,2,11,0.00
2013-7-4,77.8,66.7,56.5,52.0,48.5,44.0,70,54,37,30.02,29.91,5,2,12,0.00
2013-7-5,73.5,64.3,56.1,52.0,49.9,48.0,76,61,47,29.97,29.88,9,2,13,0.00
2013-7-6,81.4,65.2,53.4,56.0,52.5,49.0,90,66,36,29.95,29.80,3,1,167,0.00
2013-7-7,81.0,68.1,56.4,59.0,55.6,51.0,92,67,39,29.90,29.79,4,1,23,0.00
2013-7-8,85.3,67.7,56.2,57.0,54.6,51.0,91,66,35,30.01,29.87,4,1,30,0.00
2013-7-9,92.7,74.1,57.8,61.0,55.9,49.0,89,58,25,30.07,29.91,3,1,35,0.00
2013-7-10,85.5,71.9,60.3,58.0,52.8,43.0,85,54,27,29.97,29.81,5,1,11,0.00
2013-7-11,79.2,63.7,52.8,48.0,44.8,41.0,76,53,26,29.98,29.88,6,1,11,0.00
2013-7-12,72.8,62.1,53.3,50.0,46.1,42.0,83,58,34,30.06,29.92,9,2,11,0.00
2013-7-13,84.9,66.5,49.6,50.0,43.3,24.0,90,52,11,30.16,30.02,4,0,91,0.00
2013-7-14,89.8,71.6,54.3,51.0,45.8,34.0,77,45,15,30.10,29.90,4,1,80,0.00
2013-7-15,91.9,72.5,55.0,50.0,45.2,39.0,76,42,18,29.98,29.82,3,1,5,0.00
2013-7-16,86.9,74.4,63.0,54.0,44.4,37.0,53,35,23,29.91,29.79,3,0,61,0.00
2013-7-17,84.1,70.6,61.1,56.0,51.7,40.0,79,54,27,30.10,29.88,7,2,10,0.00
2013-7-18,88.8,70.6,54.5,56.0,52.0,46.0,92,56,24,30.14,29.99,3,1,156,0.00
2013-7-19,88.7,71.8,56.9,59.0,55.8,53.0,90,61,31,30.07,29.91,4,1,166,0.00
2013-7-20,84.3,70.3,57.7,59.0,57.0,52.0,93,66,38,29.98,29.83,6,1,156,0.00
2013-7-21,87.9,71.4,57.7,57.0,54.7,53.0,87,59,31,29.86,29.78,6,2,11,0.00
2013-7-22,88.6,72.8,62.0,57.0,53.8,50.0,74,54,27,29.92,29.82,5,1,8,0.00
2013-7-23,93.2,73.2,57.3,56.0,53.9,45.0,90,57,20,29.98,29.85,3,1,31,0.00
2013-7-24,93.4,75.7,60.4,59.0,52.7,40.0,86,51,18,29.96,29.88,5,1,148,0.00
2013-7-25,92.8,76.1,59.6,57.0,52.7,42.0,85,48,26,29.99,29.93,6,1,38,0.00
2013-7-26,91.9,75.4,58.5,56.0,53.4,44.0,82,51,20,30.05,29.94,5,1,151,0.00
2013-7-27,82.1,68.6,56.3,50.0,45.5,41.0,70,46,24,30.06,29.89,5,2,19,0.00
2013-7-28,77.2,65.2,55.9,51.0,48.6,45.0,79,57,32,29.95,29.87,6,2,11,0.00
2013-7-29,82.0,66.4,52.9,53.0,48.6,42.0,88,58,25,29.96,29.88,4,1,35,0.00
2013-7-30,86.0,71.0,57.9,57.0,51.8,41.0,88,55,24,30.07,29.96,5,1,249,0.00
2013-7-31,81.5,68.9,61.7,60.0,56.0,48.0,80,64,43,30.05,29.93,2,0,122,0.00
2013-8-1,70.2,63.9,57.4,56.0,54.5,53.0,86,72,58,30.05,29.95,5,2,12,0.00
2013-8-2,69.2,62.0,55.7,53.0,52.3,51.0,86,72,56,30.11,30.05,5,1,10,0.00
2013-8-3,85.7,68.5,54.8,58.0,54.8,51.0,93,65,36,30.11,29.96,4,0,9,0.00
2013-8-4,93.0,74.1,58.7,61.0,56.0,49.0,88,58,23,30.03,29.86,2,0,40,0.00
2013-8-5,91.0,74.8,60.5,61.0,57.9,54.0,89,59,30,29.95,29.84,4,1,131,0.00
2013-8-6,93.3,75.5,59.7,60.0,52.8,38.0,91,52,22,29.94,29.84,6,1,10,0.00
2013-8-7,91.4,74.8,59.4,56.0,52.1,45.0,78,48,24,29.93,29.84,12,2,12,0.00
2013-8-8,83.0,71.6,62.3,60.0,57.1,53.0,76,61,46,29.93,29.83,4,1,9,0.00
2013-8-9,85.6,70.9,62.4,62.0,60.2,57.0,96,72,41,29.93,29.74,7,1,118,0.20
2013-8-10,77.8,66.7,59.5,63.0,60.5,59.0,98,82,58,29.98,29.87,3,0,98,0.01
2013-8-11,80.4,68.8,62.2,60.0,56.7,52.0,87,67,40,30.02,29.92,4,1,9,0.00
2013-8-12,82.1,68.2,56.4,59.0,56.0,54.0,94,68,42,30.03,29.94,7,1,236,0.00
2013-8-13,89.9,71.2,56.9,58.0,52.9,43.0,92,58,21,30.07,29.90,7,1,85,0.00
2013-8-14,83.3,71.3,60.2,56.0,51.7,45.0,73,52,35,29.94,29.87,5,1,25,0.00
2013-8-15,83.4,70.9,62.7,62.0,57.5,49.0,77,64,43,29.94,29.89,7,1,52,0.00
2013-8-16,82.8,72.1,64.8,64.0,61.7,59.0,88,71,52,29.97,29.91,3,0,9,0.00
2013-8-17,83.1,71.0,61.2,61.0,57.1,54.0,89,64,40,30.04,29.95,5,1,11,0.00
2013-8-18,84.3,71.1,59.5,59.0,55.3,47.0,90,61,30,30.09,29.97,9,1,131,0.00
2013-8-19,84.1,71.6,59.5,58.0,53.4,46.0,85,56,31,30.05,29.96,6,1,11,0.00
2013-8-20,85.2,69.5,57.2,56.0,53.0,47.0,87,59,29,30.08,29.93,4,1,184,0.00
2013-8-21,89.4,71.9,56.8,53.0,47.0,40.0,79,47,19,30.04,29.88,4,0,19,0.00
2013-8-22,77.5,69.1,60.8,66.0,53.1,42.0,95,58,37,29.91,29.82,2,0,87,0.07
2013-8-23,74.9,67.1,60.7,61.0,57.1,52.0,94,72,48,29.89,29.82,6,1,9,0.05
2013-8-24,77.9,65.8,57.3,56.0,53.2,50.0,90,66,42,29.88,29.81,5,1,72,0.00
2013-8-25,71.7,61.0,56.6,59.0,55.2,52.0,97,82,54,29.93,29.86,4,0,6,0.13
2013-8-26,76.3,62.3,53.7,62.0,55.8,51.0,98,81,53,29.98,29.92,2,0,7,0.01
2013-8-27,84.3,67.2,54.0,59.0,54.8,52.0,92,68,36,29.99,29.76,2,0,55,0.00
2013-8-28,82.1,71.0,61.5,65.0,58.7,57.0,87,67,46,29.88,29.80,3,0,7,0.00
2013-8-29,77.1,68.7,63.8,65.0,60.1,58.0,86,75,57,30.04,29.83,2,0,20,0.01
2013-8-30,81.2,68.9,60.9,61.0,58.0,55.0,93,70,43,30.15,30.02,5,1,8,0.00
2013-8-31,89.7,71.0,55.9,57.0,53.5,49.0,91,60,27,30.05,29.83,3,1,76,0.00
2013-9-1,86.1,71.7,59.9,59.0,56.2,53.0,86,61,37,29.85,29.73,4,1,204,0.00
2013-9-2,84.3,71.7,62.9,57.0,55.4,54.0,74,58,38,29.86,29.79,5,1,8,0.00
2013-9-3,80.9,70.2,62.4,58.0,55.1,54.0,75,60,42,29.95,29.86,4,1,99,0.00
2013-9-4,77.5,67.0,58.4,59.0,56.0,54.0,88,69,48,29.98,29.91,7,1,162,0.00
2013-9-5,72.2,64.4,54.9,59.0,56.9,54.0,96,77,62,30.00,29.85,6,1,90,0.17
2013-9-6,67.6,59.3,54.5,61.0,56.1,54.0,98,89,69,30.14,29.99,4,0,141,0.18
2013-9-7,79.4,64.1,52.1,58.0,54.4,51.0,98,74,44,30.13,29.98,2,0,20,0.00
2013-9-8,86.1,68.7,56.6,60.0,55.6,51.0,91,66,32,30.09,29.95,4,0,89,0.00
2013-9-9,86.1,69.9,57.8,63.0,59.5,56.0,96,73,41,30.00,29.86,3,0,69,0.00
2013-9-10,90.6,73.5,59.6,63.0,56.0,49.0,95,61,24,29.97,29.86,4,1,46,0.00
2013-9-11,94.6,76.9,63.9,58.0,52.8,51.0,68,46,23,29.98,29.88,4,0,7,0.00
2013-9-12,93.3,74.0,60.8,62.0,57.6,52.0,85,59,30,29.95,29.82,2,0,162,0.00
2013-9-13,85.4,71.6,62.4,63.0,60.9,59.0,92,71,43,29.87,29.73,4,1,67,0.00
2013-9-14,92.9,72.6,59.5,62.0,57.8,51.0,95,66,25,29.82,29.68,3,0,186,0.00
2013-9-15,74.5,66.7,60.1,62.0,59.7,56.0,91,79,61,29.82,29.66,8,1,12,0.00
2013-9-16,70.3,61.7,56.6,55.0,53.7,53.0,86,76,57,29.95,29.82,7,1,10,0.00
2013-9-17,67.3,58.9,55.3,53.0,49.2,44.0,88,72,43,29.93,29.81,8,1,12,0.00
2013-9-18,69.0,58.8,51.8,50.0,46.2,43.0,82,65,40,30.08,29.93,5,1,10,0.00
2013-9-19,77.2,59.7,45.0,47.0,43.3,40.0,92,60,28,30.09,29.85,3,0,53,0.00
2013-9-20,75.8,61.1,50.2,54.0,45.4,40.0,94,59,31,29.85,29.62,4,1,7,0.04
2013-9-21,68.4,57.2,51.8,55.0,51.9,50.0,98,84,54,29.77,29.68,4,0,51,0.00
2013-9-22,59.1,53.5,48.2,53.0,50.1,47.0,97,88,67,29.86,29.71,4,0,180,0.11
2013-9-23,57.4,53.1,49.1,53.0,50.8,49.0,98,92,73,30.01,29.86,4,0,19,0.02
2013-9-24,58.9,51.0,47.6,49.0,47.2,44.0,97,87,66,29.99,29.87,4,0,122,0.00
2013-9-25,61.2,51.1,45.9,47.0,44.5,43.0,92,79,57,30.02,29.86,4,1,44,0.01
2013-9-26,63.0,52.6,43.9,47.0,44.0,42.0,95,74,52,30.18,30.02,6,1,75,0.00
2013-9-27,56.8,50.7,46.1,50.0,47.4,44.0,97,89,70,30.18,29.98,2,0,229,0.20
2013-9-28,60.3,53.6,47.6,60.0,52.9,46.0,99,97,93,29.98,29.55,6,0,10,0.02
2013-9-29,51.7,49.0,44.9,51.0,48.3,44.0,99,97,92,29.75,29.41,4,0,153,0.00
2013-9-30,57.2,50.5,47.1,51.0,45.3,41.0,94,83,64,30.02,29.58,7,2,73,0.00
2013-10-1,50.2,45.8,41.6,47.0,44.5,41.0,98,95,86,30.23,30.01,3,0,162,0.00
2013-10-2,53.9,44.8,41.7,47.0,43.1,41.0,98,94,75,30.23,30.09,3,0,235,0.00
2013-10-3,58.0,46.9,40.1,45.0,42.0,39.0,99,84,57,30.49,30.19,3,0,7,0.00
2013-10-4,63.3,48.3,37.7,47.0,41.4,37.0,98,79,47,30.58,30.46,2,0,8,0.00
2013-10-5,66.2,50.7,39.8,45.0,40.8,38.0,95,72,38,30.48,30.28,3,0,6,0.00
2013-10-6,68.7,53.3,42.5,47.0,43.4,40.0,91,72,44,30.29,30.02,2,0,47,0.00
2013-10-7,56.9,51.3,47.1,50.0,45.9,43.0,96,82,65,30.12,29.98,4,1,11,0.03
2013-10-8,50.2,47.0,40.9,47.0,43.5,40.0,95,87,80,30.11,29.99,7,1,204,0.04
2013-10-9,56.6,46.2,38.5,47.0,41.6,38.0,98,85,56,30.17,29.99,3,0,6,0.00
2013-10-10,58.4,49.5,42.5,46.0,43.2,38.0,94,80,54,30.09,29.94,6,1,32,0.00
2013-10-11,55.4,48.0,42.8,46.0,43.3,41.0,97,84,61,30.18,30.09,2,0,25,0.00
2013-10-12,52.1,47.2,43.1,46.0,43.6,41.0,96,87,76,30.23,30.08,3,0,158,0.01
2013-10-13,60.2,47.9,39.7,45.0,42.5,39.0,98,83,53,30.37,30.23,1,0,69,0.00
2013-10-14,61.8,47.9,39.0,46.0,39.6,36.0,97,76,41,30.48,30.37,5,0,7,0.00
2013-10-15,61.0,47.4,38.1,40.0,37.0,35.0,89,69,44,30.48,30.24,3,0,6,0.00
2013-10-16,61.5,47.8,38.1,43.0,38.7,36.0,92,73,44,30.25,30.18,1,0,182,0.00
2013-10-17,62.9,49.3,40.3,45.0,39.4,38.0,92,71,43,30.32,30.24,2,0,136,0.00
2013-10-18,63.0,49.2,38.7,43.0,38.7,36.0,90,69,44,30.33,30.21,2,0,4,0.00
2013-10-19,63.8,49.8,39.4,46.0,41.8,37.0,93,75,50,30.23,30.10,3,0,182,0.00
2013-10-20,67.4,52.8,42.3,50.0,44.3,41.0,96,75,41,30.22,30.12,1,0,65,0.00
2013-10-21,68.0,55.0,44.8,48.0,44.0,42.0,91,69,43,30.22,30.13,1,0,3,0.00
2013-10-22,67.1,54.6,44.8,48.0,44.2,41.0,89,69,47,30.21,30.09,4,0,167,0.00
2013-10-23,65.7,53.2,43.8,49.0,45.4,42.0,93,76,53,30.16,30.07,3,0,70,0.00
2013-10-24,64.7,53.2,44.1,50.0,46.0,42.0,95,78,55,30.16,30.08,1,0,2,0.00
2013-10-25,63.5,51.2,43.9,52.0,47.0,43.0,97,86,63,30.30,30.15,2,0,43,0.00
2013-10-26,59.5,49.1,43.3,51.0,46.3,43.0,98,91,70,30.34,30.18,3,0,4,0.00
2013-10-27,51.8,46.7,44.7,46.0,44.7,42.0,97,92,75,30.17,29.84,4,1,161,0.04
2013-10-28,51.4,45.1,39.5,45.0,33.2,26.0,97,65,43,30.00,29.90,6,0,96,0.00
2013-10-29,51.8,40.7,31.9,35.0,27.6,25.0,80,61,38,30.11,30.00,7,0,64,0.00
2013-10-30,55.3,44.4,32.8,38.0,33.1,30.0,92,67,42,30.18,30.09,6,1,9,0.00
2013-10-31,57.4,51.1,47.2,50.0,45.0,37.0,89,80,61,30.29,30.15,6,2,98,0.00
2013-11-1,58.6,49.4,41.6,48.0,44.5,41.0,98,84,62,30.32,29.95,1,0,196,0.00
2013-11-2,50.6,45.8,38.0,47.0,41.9,36.0,97,86,65,30.02,29.72,13,2,229,0.09
2013-11-3,45.8,40.1,36.9,40.0,37.9,36.0,97,92,70,30.14,30.01,10,1,10,0.00
2013-11-4,42.1,39.6,36.7,41.0,38.4,35.0,97,95,91,30.22,30.14,1,0,54,0.00
2013-11-5,48.2,43.6,38.9,48.0,42.4,38.0,98,95,89,30.27,30.16,4,0,153,0.01
2013-11-6,47.2,44.8,41.4,46.0,43.8,41.0,98,96,93,30.38,30.23,2,0,202,0.00
2013-11-7,47.1,43.4,40.5,46.0,41.6,40.0,99,94,78,30.23,29.94,10,1,236,0.00
2013-11-8,48.2,44.1,39.8,45.0,41.9,39.0,97,92,76,30.22,30.09,2,0,153,0.00
2013-11-9,46.0,41.8,37.9,42.0,39.9,37.0,98,93,84,30.21,30.15,1,0,146,0.00
2013-11-10,49.5,43.5,39.9,43.0,40.9,39.0,97,90,74,30.27,30.18,1,0,177,0.00
2013-11-11,45.6,43.9,42.5,43.0,41.7,41.0,93,91,89,30.39,30.27,2,0,128,0.00
2013-11-12,50.8,46.0,42.9,48.0,44.7,41.0,98,95,89,30.44,30.27,1,0,204,0.36
2013-11-13,54.7,48.3,40.5,48.0,44.7,39.0,99,88,64,30.49,30.31,3,0,131,0.00
2013-11-14,49.0,43.7,39.5,41.0,39.8,38.0,97,86,72,30.30,30.07,7,1,113,0.00
2013-11-15,45.8,43.6,42.2,40.0,37.4,35.0,86,79,72,30.07,29.45,7,2,14,0.00
2013-11-16,46.9,41.8,39.2,42.0,38.7,36.0,97,89,69,29.83,29.42,17,2,17,0.16
2013-11-17,47.5,43.6,40.4,46.0,42.8,40.0,98,97,92,30.01,29.84,1,0,3,0.08
2013-11-18,49.3,44.9,41.1,47.0,44.3,41.0,99,97,93,30.00,29.73,1,0,3,0.03
2013-11-19,49.5,45.4,37.3,49.0,44.0,33.0,99,94,81,29.96,29.71,4,1,9,0.26
2013-11-20,39.2,33.0,26.8,33.0,23.0,13.0,96,69,41,30.53,29.97,3,0,7,0.00
2013-11-21,35.5,27.8,21.1,19.0,14.8,9.0,78,59,35,30.80,30.54,3,0,4,0.00
2013-11-22,33.4,27.0,21.2,21.0,17.6,14.0,83,68,53,30.87,30.75,2,0,4,0.00
2013-11-23,36.0,28.5,23.2,22.0,19.8,17.0,80,70,53,30.74,30.47,2,0,4,0.00
2013-11-24,36.3,29.0,22.7,25.0,21.7,19.0,85,74,57,30.51,30.39,1,0,3,0.00
2013-11-25,39.5,30.5,24.4,27.0,23.8,21.0,88,77,55,30.56,30.49,2,0,3,0.00
2013-11-26,38.6,30.9,26.5,31.0,26.0,24.0,90,82,65,30.49,30.32,1,0,180,0.00
2013-11-27,37.1,31.8,28.6,29.0,27.4,25.0,91,84,72,30.31,30.22,2,0,4,0.00
2013-11-28,40.7,32.0,27.1,33.0,28.6,26.0,95,87,72,30.33,30.25,1,0,3,0.00
2013-11-29,40.6,33.6,27.5,39.0,31.5,27.0,97,92,83,30.39,30.32,2,0,3,0.00
2013-11-30,49.0,42.4,36.5,43.0,40.0,36.0,98,91,78,30.42,30.25,3,0,112,0.01
2013-12-1,54.8,48.4,41.9,50.0,47.0,41.0,99,95,82,30.25,29.86,4,1,13,1.66
2013-12-2,46.0,37.3,30.8,45.0,34.9,30.0,97,91,80,30.05,29.82,6,1,13,0.16
2013-12-3,34.2,29.8,23.5,30.0,24.0,17.0,96,79,57,30.36,30.05,2,0,6,0.00
2013-12-4,28.5,23.0,17.8,18.0,15.1,12.0,84,72,54,30.45,30.36,4,0,5,0.00
2013-12-5,22.0,17.7,13.7,15.0,13.0,11.0,92,82,68,30.45,30.35,2,0,4,0.00
2013-12-6,18.4,17.2,15.1,16.0,14.4,12.0,91,88,84,30.39,30.23,4,0,4,0.00
2013-12-7,17.1,12.4,5.0,14.0,7.6,1.0,91,81,65,30.57,30.28,3,0,4,0.00
2013-12-8,15.8,8.3,1.9,11.0,4.6,-1.0,89,84,75,30.74,30.56,2,0,2,0.00
2013-12-9,32.3,20.6,7.7,30.0,17.7,5.0,92,88,80,30.74,30.51,3,0,10,0.00
2013-12-10,36.3,31.4,24.5,32.0,29.2,23.0,96,91,85,30.54,30.47,5,1,109,0.00
2013-12-11,28.4,24.5,20.6,25.0,21.0,19.0,95,87,70,30.54,30.43,3,0,4,0.00
2013-12-12,30.1,25.2,19.3,28.0,22.5,18.0,94,89,76,30.43,30.24,1,0,128,0.00
2013-12-13,44.3,38.4,29.4,42.0,37.3,27.0,98,95,88,30.49,30.30,3,0,10,0.24
2013-12-14,42.7,38.0,35.2,43.0,37.6,35.0,99,98,98,30.50,30.40,2,0,2,0.01
2013-12-15,49.4,43.8,37.4,45.0,41.3,37.0,99,91,76,30.47,30.38,6,1,10,0.00
2013-12-16,46.5,40.8,34.4,43.0,39.2,34.0,98,94,82,30.49,30.36,2,0,7,0.00
2013-12-17,42.5,35.8,31.7,37.0,34.2,31.0,99,94,73,30.35,30.15,2,0,4,0.00
2013-12-18,43.9,39.1,30.7,40.0,35.6,26.0,97,87,72,30.15,30.00,5,1,128,0.00
2013-12-19,35.5,30.4,27.4,29.0,25.7,22.0,96,83,61,30.36,30.12,1,0,3,0.00
2013-12-20,43.9,36.2,29.2,42.0,32.8,24.0,95,87,67,30.21,29.75,11,2,13,0.01
2013-12-21,47.4,45.1,43.2,43.0,41.6,40.0,93,87,82,30.18,29.85,6,2,11,0.00
2013-12-22,49.5,45.8,42.9,46.0,43.5,41.0,96,91,86,30.34,30.18,5,1,8,0.00
2013-12-23,54.0,46.2,40.0,48.0,42.6,35.0,96,87,70,30.52,30.20,9,1,14,0.04
2013-12-24,43.5,36.3,31.0,37.0,33.2,30.0,97,89,72,30.63,30.52,3,0,186,0.00
2013-12-25,37.6,31.6,28.2,34.0,30.1,28.0,97,94,83,30.62,30.49,1,0,2,0.00
2013-12-26,37.6,30.6,27.1,34.0,29.3,26.0,98,95,87,30.51,30.38,1,0,2,0.00
2013-12-27,41.1,31.9,24.9,40.0,30.8,24.0,98,96,89,30.41,30.25,2,0,5,0.01
2013-12-28,41.8,35.9,29.6,39.0,34.8,29.0,99,95,86,30.56,30.39,2,0,141,0.00
2013-12-29,37.1,32.2,27.6,35.0,31.2,27.0,98,96,89,30.55,30.33,2,0,102,0.00
2013-12-30,37.1,34.1,30.8,36.0,32.8,30.0,98,95,89,30.35,30.25,3,0,7,0.01
2013-12-31,47.2,41.5,36.2,39.0,37.3,35.0,97,85,70,30.40,30.26,2,0,60,0.00
2014-1-1,41.1,36.5,32.5,39.0,35.5,32.0,98,96,90,30.49,30.40,1,0,3,0.00
2014-1-2,46.3,36.2,31.8,42.0,34.9,31.0,98,95,83,30.43,29.99,3,0,151,0.00